Weather History for Manchester, NH

Change the Weather History Date:

Saturday, December 21, 2013

  Actual Average Record
Temperature  
Mean Temperature 45 °F -  
Max Temperature 55 °F 34 °F 59 °F (1957)
Min Temperature 35 °F 14 °F -9 °F (1958)
Degree Days  
Heating Degree Days 20    
Moisture  
Dew Point 36 °F    
Average Humidity 78    
Maximum Humidity 96    
Minimum Humidity 59    
Precipitation  
Precipitation 0.00 in - - ()
Snow  
Snow 0.00 in - - ()
Snow Depth 9.00 in    
Sea Level Pressure  
Sea Level Pressure 29.92 in    
Wind  
Wind Speed 2 mph (South)    
Max Wind Speed 9 mph    
Max Gust Speed -    
Visibility 10 miles    
Events      
Averages and records for this station are not official NWS values.
T = Trace of Precipitation, MM = Missing Value Source: NWS Daily Summary

Daily Weather History Graph

Daily Weather History Graph

Search for Another Location

Airport:

Trip Planner

Search our weather history database for the weather conditions in past years. The results will help you decide how hot, cold, wet, or windy it might be!

Date:

Astronomy

Dec. 21, 2013 Rise Set
Actual Time 7:13 AM EST 4:14 PM EST
Civil Twilight 6:41 AM EST 4:46 PM EST
Nautical Twilight 6:05 AM EST 5:22 PM EST
Astronomical Twilight 5:30 AM EST 5:57 PM EST
Moon 8:33 PM EST (12/21) 9:33 AM EST (12/21)
Length of Visible Light 10h 05m
Length of Day
9h 00m
Waning Gibbous, 84% of the Moon is Illuminated
Dec 21
Waning Gibbous
Dec 25
Last Quarter
Jan 1
New
Jan 7
First Quarter
Jan 15
Full

Hourly Weather History & Observations

Time (EST) Temp. Windchill Dew Point Humidity Pressure Visibility Wind Dir Wind Speed Gust Speed Precip Events Conditions
12:53 AM 41.0 °F - 30.9 °F 67% 29.95 in 10.0 mi Calm Calm - N/A   Overcast
1:53 AM 39.0 °F 36.8 °F 30.9 °F 73% 29.92 in 10.0 mi SE 3.5 mph - N/A   Overcast
2:53 AM 35.1 °F - 30.9 °F 85% 29.94 in 10.0 mi Calm Calm - N/A   Mostly Cloudy
3:53 AM 35.1 °F - 30.9 °F 85% 29.94 in 10.0 mi Calm Calm - N/A   Overcast
4:53 AM 41.0 °F 37.1 °F 30.0 °F 65% 29.94 in 10.0 mi SSW 5.8 mph - N/A   Overcast
5:53 AM 35.1 °F - 30.0 °F 82% 29.94 in 10.0 mi Calm Calm - N/A   Mostly Cloudy
6:53 AM 35.1 °F - 30.0 °F 82% 29.94 in 10.0 mi Calm Calm - N/A   Mostly Cloudy
7:53 AM 39.0 °F 34.8 °F 32.0 °F 76% 29.96 in 10.0 mi SSW 5.8 mph - N/A   Scattered Clouds
8:53 AM 39.9 °F 36.7 °F 33.1 °F 77% 29.96 in 10.0 mi South 4.6 mph - N/A   Scattered Clouds
9:53 AM 41.0 °F 37.1 °F 34.0 °F 76% 29.96 in 10.0 mi South 5.8 mph - N/A   Scattered Clouds
10:53 AM 46.0 °F 41.4 °F 36.0 °F 68% 29.95 in 10.0 mi South 9.2 mph - N/A   Mostly Cloudy
11:53 AM 50.0 °F - 37.9 °F 63% 29.89 in 10.0 mi South 4.6 mph - N/A   Mostly Cloudy
12:53 PM 52.0 °F - 37.9 °F 59% 29.88 in 10.0 mi Variable 3.5 mph - N/A   Mostly Cloudy
1:53 PM 48.9 °F - 39.0 °F 69% 29.87 in 10.0 mi SSE 5.8 mph - N/A   Overcast
2:53 PM 55.0 °F - 41.0 °F 59% 29.88 in 10.0 mi South 3.5 mph - N/A   Overcast
3:53 PM 53.1 °F - 42.1 °F 66% 29.87 in 10.0 mi SSW 4.6 mph - N/A   Overcast
4:53 PM 48.9 °F - 41.0 °F 74% 29.89 in 10.0 mi South 4.6 mph - N/A   Overcast
5:53 PM 46.0 °F - 42.1 °F 86% 29.91 in 10.0 mi Calm Calm - 0.00 in   Overcast
6:53 PM 45.0 °F - 42.1 °F 90% 29.92 in 10.0 mi Calm Calm - N/A   Overcast
7:53 PM 39.0 °F - 37.9 °F 96% 29.92 in 10.0 mi Calm Calm - N/A   Overcast
8:53 PM 43.0 °F - 39.9 °F 89% 29.92 in 8.0 mi Calm Calm - N/A   Overcast
9:53 PM 43.0 °F - 39.9 °F 89% 29.92 in 8.0 mi Calm Calm - N/A   Overcast
10:53 PM 41.0 °F - 39.0 °F 93% 29.92 in 8.0 mi Calm Calm - N/A   Overcast
11:53 PM 39.9 °F - 37.9 °F 93% 29.91 in 6.0 mi Calm Calm - 0.00 in   Overcast